CAPE
0 0 0 0 6 9 16 22 26 15 2 5 8 12 8 12 2 7 20 11 6 8 4 2 1 0 0 1 31 228 91 53 81 101 100 101 99 98
0 0 0 1 2 3 10 12 20 24 19 8 8 21 10 5 3 5 22 9 9 13 9 7 4 2 0 1 1 1 0 1 82 30 78 75 56 56
0 2 1 3 4 2 4 7 12 20 21 8 10 11 17 9 4 10 17 15 10 13 17 13 8 5 3 1 1 0 0 0 0 0 3 13 36 35
5 7 6 9 13 11 7 8 5 8 9 13 11 12 21 11 6 8 15 10 13 12 14 14 18 12 8 4 2 0 1 1 0 0 0 0 0 4
7 9 7 10 14 22 18 15 7 9 10 11 14 11 10 31 16 6 17 6 3 10 8 12 18 16 20 15 13 7 4 1 1 0 1 1 0 1
5 7 5 5 10 14 16 14 23 11 10 11 5 9 8 12 23 22 12 11 5 1 10 9 9 15 15 16 22 16 10 7 4 1 1 1 1 1
9 7 8 3 2 3 12 15 13 10 10 9 8 7 9 8 22 26 30 20 13 5 15 7 9 8 17 9 12 18 18 13 13 6 3 1 0 0
13 13 13 3 2 0 0 2 8 13 17 19 19 20 15 23 11 26 26 20 15 8 6 6 11 7 10 13 19 14 18 15 13 14 10 9 3 2
12 13 12 13 2 0 0 0 2 3 7 17 19 18 16 28 15 9 14 28 18 13 7 19 17 5 6 10 17 20 15 19 13 12 9 8 4 3
5 4 3 2 2 0 0 0 2 6 8 16 14 14 14 22 17 22 22 25 25 15 13 14 19 15 12 7 12 16 20 17 17 16 8 4 4 3
5 3 3 3 2 0 0 0 0 4 2 1 1 1 2 4 15 7 9 18 18 19 19 12 18 20 17 10 15 12 11 16 14 20 14 7 5 5
7 11 0 6 2 1 0 1 2 7 6 5 7 5 3 5 4 13 13 6 12 5 13 17 15 18 20 28 10 19 21 7 11 16 23 16 5 6
13 15 16 2 3 2 2 6 4 7 6 9 11 14 12 11 13 15 15 12 9 14 23 13 18 14 13 30 20 12 19 5 12 26 9 19 21 10
12 17 13 1 1 2 4 1 1 5 14 14 14 15 16 15 16 19 11 12 9 9 10 14 19 24 15 9 9 10 8 8 12 10 11 18 8 12
6 1 0 0 0 3 1 1 3 17 18 15 17 21 23 19 12 11 9 7 4 3 6 5 22 18 15 13 10 11 6 4 17 14 14 15 26 19
1 2 0 0 0 2 9 12 22 22 21 22 21 24 17 15 13 11 11 9 7 5 1 0 3 9 11 12 10 7 6 8 8 8 7 15 14 20
2 3 7 7 10 12 14 12 19 19 21 22 20 17 12 6 6 5 5 6 3 0 0 0 1 1 2 0 4 8 10 8 8 8 6 6 10 12
2 4 7 9 8 7 10 13 14 10 14 10 13 9 7 5 1 0 1 3 0 0 0 0 0 0 0 0 0 4 5 6 7 6 4 6 7 8
1 4 6 8 4 1 1 3 8 13 6 9 11 10 8 4 5 2 2 2 0 0 0 0 0 0 0 3 1 1 3 3 8 6 5 4 4 2
0 1 3 2 0 0 0 2 5 11 12 11 13 13 15 11 9 5 4 4 3 0 0 0 0 0 0 4 10 8 0 9 9 7 5 2 2 0
0 0 1 0 2 1 9 11 12 14 14 18 19 12 19 15 11 10 11 1 1 2 0 0 0 0 0 0 4 5 5 1 4 4 5 6 2 0
1 0 0 1 4 4 9 11 10 13 14 15 17 19 21 17 16 11 11 11 5 4 1 1 1 0 0 0 1 7 8 6 0 0 0 0 16 9
2 1 2 3 3 5 4 9 7 15 11 13 14 15 15 16 15 14 16 8 4 2 2 5 4 3 2 0 0 12 7 5 7 8 10 0 2 3
CIN
-0 -0 -0 -0 -0 -0 -0 -0 -0 -0 -0 -0 -0 -0 -0 -0 -0 -0 -0 -0 -0 -0 -0 -0 -0 -0 -0 -0 -24 -47 -74 -7 -2 -14 -25 -53 -13 -18
-0 -0 -0 -0 -0 -0 -0 -0 -0 -0 -0 -0 -0 -0 -0 -0 -0 -0 -0 -0 -0 -0 -0 -0 -0 -0 -0 -0 -0 -0 -0 -14 -15 -63 -97 -121 -68 -23
-0 -0 -0 -0 -0 -0 -0 -0 -0 -0 -0 -0 -0 -0 -0 -0 -0 -0 -0 -0 -0 -0 -0 -0 -0 -0 -0 -0 -0 -0 -0 -0 -0 -14 -84 -266 -155 -62
-0 -0 -0 -0 -0 -0 -0 -0 -0 -0 -0 -0 -0 -0 -0 -0 -0 -0 -0 -0 -0 -0 -0 -0 -0 -0 -0 -0 -0 -0 -0 -0 -0 -0 -0 -0 -0 -168
-0 -0 -0 -0 -0 -0 -0 -0 -0 -0 -0 -0 -0 -0 -0 -0 -0 -0 -0 -0 -0 -0 -0 -0 -0 -0 -0 -0 -0 -0 -0 -0 -0 -0 -0 -0 -0 -0
-0 -0 -0 -0 -0 -0 -0 -0 -0 -0 -0 -0 -0 -0 -0 -0 -0 -0 -0 -0 -0 -0 -0 -0 -0 -0 -0 -0 -0 -0 -0 -0 -0 -0 -0 -0 -0 -0
-0 -0 -0 -0 -0 -0 -0 -0 -0 -0 -0 -0 -0 -0 -0 -0 -0 -0 -0 -0 -0 -0 -0 -0 -0 -0 -0 -0 -0 -0 -0 -0 -0 -0 -0 -0 -0 -0
-0 -0 -0 -0 -0 -0 -0 -0 -0 -0 -0 -0 -0 -0 -0 -0 -0 -0 -0 -0 -0 -0 -0 -0 -0 -0 -0 -0 -0 -0 -0 -0 -0 -0 -0 -0 -0 -0
-0 -0 -0 -0 -0 -0 -0 -0 -0 -0 -0 -0 -0 -0 -0 -0 -0 -0 -0 -0 -0 -0 -0 -0 -0 -0 -0 -0 -0 -0 -0 -0 -0 -0 -0 -0 -0 -0
-0 -0 -0 -0 -0 -0 -0 -0 -0 -0 -0 -0 -0 -0 -0 -0 -0 -0 -0 -0 -0 -0 -0 -0 -0 -0 -0 -0 -0 -0 -0 -0 -0 -0 -0 -0 -0 -0
-0 -0 -0 -0 -0 -0 -0 -0 -0 -0 -0 -0 -0 -0 -0 -0 -0 -0 -0 -0 -0 -0 -0 -0 -0 -0 -0 -0 -0 -0 -0 -0 -0 -0 -0 -0 -0 -0
-0 -0 -0 -0 -0 -0 -0 -0 -0 -0 -0 -0 -0 -0 -0 -0 -0 -0 -0 -0 -0 -0 -0 -0 -0 -0 -0 -0 -0 -0 -0 -0 -0 -0 -0 -0 -0 -0
-0 -0 -0 -0 -0 -0 -0 -0 -0 -0 -0 -0 -0 -0 -0 -0 -0 -0 -0 -0 -0 -0 -0 -0 -0 -0 -0 -0 -0 -0 -0 -0 -0 -0 -0 -0 -0 -0
-0 -0 -0 -0 -0 -0 -0 -0 -0 -0 -0 -0 -0 -0 -0 -0 -0 -0 -0 -0 -0 -0 -0 -0 -0 -0 -0 -0 -0 -0 -0 -0 -0 -0 -0 -0 -0 -0
-0 -0 -0 -0 -0 -0 -0 -0 -0 -0 -0 -0 -0 -0 -0 -0 -0 -0 -0 -0 -0 -0 -0 -0 -0 -0 -0 -0 -0 -0 -0 -0 -0 -0 -0 -0 -0 -0
-0 -0 -0 -0 -0 -0 -0 -0 -0 -0 -0 -0 -0 -0 -0 -0 -0 -0 -0 -0 -0 -0 -0 -0 -0 -0 -0 -0 -0 -0 -0 -0 -0 -0 -0 -0 -0 -0
-0 -0 -0 -0 -0 -0 -0 -0 -0 -0 -0 -0 -0 -0 -0 -0 -0 -0 -0 -0 -0 -0 -0 -0 -0 -0 -0 -0 -0 -0 -0 -0 -0 -0 -0 -0 -0 -0
-0 -0 -0 -0 -0 -0 -0 -0 -0 -0 -0 -0 -0 -0 -0 -0 -0 -0 -0 -0 -0 -0 -0 -0 -0 -0 -0 -0 -0 -0 -0 -0 -0 -0 -0 -0 -0 -0
-0 -0 -0 -0 -0 -0 -0 -0 -0 -0 -0 -0 -0 -0 -0 -0 -0 -0 -0 -0 -0 -0 -0 -0 -0 -0 -0 -0 -0 -0 -0 -0 -0 -0 -0 -0 -0 -0
-0 -0 -0 -0 -0 -0 -0 -0 -0 -0 -0 -0 -0 -0 -0 -0 -0 -0 -0 -0 -0 -0 -0 -0 -0 -0 -0 -0 -0 -0 -0 -0 -0 -0 -0 -0 -0 -0
-0 -0 -0 -0 -0 -0 -0 -0 -0 -0 -0 -0 -0 -0 -0 -0 -0 -0 -0 -0 -0 -0 -0 -0 -0 -0 -0 -0 -0 -0 -0 -0 -0 -0 -0 -0 -0 -0
-0 -0 -0 -0 -0 -0 -0 -0 -0 -0 -0 -0 -0 -0 -0 -0 -0 -0 -0 -0 -0 -0 -0 -0 -0 -0 -0 -0 -0 -0 -0 -0 -0 -0 -0 -0 -0 -0
-0 -0 -0 -0 -0 -0 -0 -0 -0 -0 -0 -0 -0 -0 -0 -0 -0 -0 -0 -0 -0 -0 -0 -0 -0 -0 -0 -0 -0 -0 -0 -0 -0 -0 -0 -1 -0 -0
Wind_Speed
8 10 8 7 7 8 7 8 9 11 13 12 13 16 14 12 15 15 11 19 28 27 27 26 16 18 14 11 14 23 27 15 28 20 23 28 30 31
8 11 11 9 8 8 8 8 7 8 8 13 13 15 14 13 15 15 11 15 24 27 28 27 27 15 12 11 13 16 21 26 33 24 22 24 27 29
11 11 13 13 10 9 9 8 8 8 10 12 11 14 15 14 15 13 10 10 10 27 28 28 28 27 26 17 12 16 19 21 25 24 23 23 26 24
11 12 12 10 13 12 10 13 11 10 10 14 13 12 15 14 12 12 10 10 10 22 25 28 29 29 28 27 24 16 9 16 17 18 18 16 19 25
9 11 12 12 12 11 10 12 12 10 9 9 11 11 11 13 13 11 9 11 10 20 23 26 28 31 29 29 26 24 20 13 6 5 4 8 13 15
9 10 12 12 13 13 10 12 12 12 12 10 11 12 13 14 11 11 9 7 10 11 17 21 24 28 32 31 30 27 24 21 17 13 12 8 3 6
10 10 12 14 14 14 10 12 14 12 11 11 12 12 13 15 14 12 10 5 8 10 9 11 11 11 18 25 26 30 27 24 22 20 17 15 11 6
9 9 10 15 12 12 13 14 15 13 13 12 11 13 15 14 13 12 10 9 5 11 8 9 8 12 11 14 28 31 30 27 25 22 22 22 22 19
9 9 9 10 13 9 9 11 13 17 14 11 13 12 13 15 14 12 13 8 8 10 10 7 8 9 9 10 27 29 31 30 29 24 21 21 25 24
10 11 11 13 16 13 9 9 10 10 12 10 11 12 13 15 15 10 12 8 4 9 14 6 8 5 7 8 26 27 30 30 29 27 25 18 23 23
8 12 13 12 18 18 11 11 11 11 10 13 14 15 17 20 20 11 12 10 5 7 13 6 8 8 3 7 10 23 25 27 29 29 22 27 20 17
6 7 15 14 16 17 12 11 10 11 11 11 11 12 14 15 20 15 12 11 11 5 12 9 10 9 4 4 9 11 11 24 24 24 29 23 26 8
5 5 8 13 14 15 14 11 10 9 10 9 9 9 11 12 11 12 12 11 11 7 12 9 8 9 7 6 5 9 9 11 11 15 20 22 25 20
5 5 6 11 10 13 11 14 13 10 8 8 9 9 10 10 11 10 10 8 8 10 12 13 6 8 8 6 8 9 9 9 9 9 9 12 20 21
5 6 5 7 7 6 11 12 10 8 8 8 9 9 9 9 10 10 9 7 7 8 10 12 9 9 8 7 8 8 9 5 9 9 9 9 10 8
1 4 4 3 2 4 6 7 7 7 7 8 8 8 8 9 9 9 8 8 7 8 10 11 11 9 8 6 7 9 10 8 11 10 10 8 7 6
4 2 3 4 4 5 5 6 6 7 7 8 8 8 8 9 9 9 9 8 8 9 10 10 12 8 5 9 8 10 9 8 10 11 10 9 7 7
0 3 4 4 5 5 5 5 6 7 7 7 8 8 8 9 9 9 9 9 9 9 10 11 11 9 5 5 13 10 9 10 10 11 10 9 7 7
2 3 4 4 4 5 5 5 5 6 6 7 7 8 8 8 9 9 9 10 9 9 9 10 11 11 10 10 7 15 11 11 11 10 9 9 10 8
3 3 3 3 4 5 5 5 5 5 6 6 7 7 8 7 8 9 9 9 10 9 9 9 10 11 10 10 9 8 13 9 11 10 10 9 10 13
3 2 3 3 3 4 4 4 4 5 5 5 5 6 7 7 8 8 8 9 10 9 10 10 10 12 8 8 8 8 9 17 12 10 11 10 10 9
2 2 3 3 3 3 4 3 3 3 4 4 4 5 6 6 7 8 8 9 9 9 9 8 10 9 8 9 10 12 10 11 13 10 4 2 7 7
1 2 2 2 3 3 4 3 3 4 4 4 4 5 4 5 6 7 8 8 9 10 11 9 9 9 8 9 11 10 14 13 11 11 8 13 13 11
Wind_Direction
4 7 2 0 354 347 340 337 333 328 329 348 347 342 352 345 332 334 352 16 14 9 7 2 302 269 247 242 213 208 204 225 231 215 217 216 209 210
6 9 9 1 353 354 351 346 340 329 308 337 337 345 351 344 340 330 357 14 18 16 17 16 15 345 280 242 223 214 189 200 213 212 209 207 208 211
15 14 11 3 356 358 347 352 347 337 325 329 337 347 348 346 338 340 354 20 15 17 19 21 23 24 26 11 254 216 213 207 212 206 203 209 210 212
13 16 15 2 3 3 350 352 355 334 338 337 348 352 350 359 338 347 12 15 18 21 21 22 26 27 29 25 22 12 255 217 211 205 202 196 205 212
21 18 15 7 7 1 2 353 352 337 351 341 351 359 358 355 352 349 13 23 20 19 24 22 26 29 31 28 26 26 18 22 74 139 208 223 216 208
29 28 21 18 8 3 3 2 355 346 356 355 0 359 4 356 343 352 357 38 27 12 21 23 21 26 32 27 27 28 29 25 36 50 80 89 139 212
37 27 30 23 20 20 4 6 3 0 3 358 6 2 2 356 354 334 349 336 49 21 25 23 22 9 27 24 23 23 30 30 30 44 51 63 67 96
32 34 31 26 17 18 24 21 18 13 11 4 8 4 1 355 344 336 349 1 6 23 347 24 17 23 20 25 21 23 29 26 35 32 46 59 61 64
40 30 31 31 16 6 30 26 28 24 20 9 9 10 359 356 344 346 346 14 30 12 340 29 12 36 19 17 28 22 27 23 30 30 33 50 63 61
36 29 32 29 21 358 14 29 30 25 20 16 16 11 6 1 356 347 333 311 94 42 7 355 4 2 32 16 24 25 19 20 24 26 26 30 54 57
44 42 19 30 21 6 15 19 18 21 14 15 15 17 14 14 14 5 8 8 4 37 21 327 357 331 44 34 22 19 18 13 15 19 21 23 33 44
51 35 48 15 24 19 20 14 13 3 3 5 14 16 15 16 18 24 8 12 1 14 13 340 2 349 335 67 39 7 17 4 3 7 20 19 34 26
34 25 39 18 21 24 21 21 11 347 6 8 14 14 15 15 17 16 21 22 11 14 0 339 359 0 344 342 32 20 3 5 352 8 3 6 29 36
27 35 35 12 21 25 23 17 14 7 11 13 15 17 12 11 9 8 14 23 35 20 360 357 352 359 357 355 3 8 353 26 8 355 340 3 25 22
35 32 15 14 3 24 23 11 20 16 16 16 14 11 10 3 4 3 9 8 27 34 18 5 354 356 9 13 359 3 353 5 1 2 347 4 24 13
67 66 13 347 32 3 16 16 19 22 12 16 7 4 4 4 11 6 1 5 6 14 24 21 3 356 14 11 16 2 1 4 354 3 354 7 18 22
307 12 16 13 17 16 21 23 25 13 17 11 10 4 7 7 8 9 5 3 11 6 10 11 6 2 37 16 14 10 360 358 359 355 354 356 13 14
264 30 31 16 17 13 13 11 24 16 9 9 12 6 7 12 360 10 8 6 10 8 9 8 6 0 12 98 42 6 0 355 353 352 353 345 348 351
46 42 31 17 13 18 10 10 11 20 1 12 10 12 2 9 5 11 11 3 8 5 10 11 10 3 3 2 358 21 356 350 350 347 343 344 328 326
39 33 27 21 15 18 12 10 2 7 10 2 13 12 360 12 10 8 20 8 358 1 4 9 14 0 353 349 330 343 5 350 345 337 336 331 313 287
43 40 26 18 18 13 17 1 7 12 356 356 11 13 3 4 16 11 7 14 351 4 2 3 2 339 339 331 346 343 348 2 345 337 334 340 342 326
33 31 29 15 11 360 1 354 344 356 7 359 12 23 359 6 14 7 12 2 7 1 355 353 353 349 353 352 348 338 354 347 345 333 323 266 337 324
33 6 20 9 337 344 335 352 355 346 1 355 5 10 7 3 4 13 5 6 12 1 352 353 353 351 356 353 341 343 355 348 350 347 351 2 346 307